Wind_Speed
15 15 14 14 14 13 13 12 11 11 11 11 10 10 11 11 11 12 12 12 12 12 13 12 12 11 11 11 12 13 13 13 13 13 14 14 15 15 15 15 15 14 14
16 15 15 14 13 12 12 12 11 11 11 11 11 11 11 11 11 11 12 12 11 11 12 13 12 12 12 12 13 13 14 13 13 14 15 15 15 16 16 16 16 15 15
15 15 15 14 13 12 12 11 11 12 12 11 11 11 11 12 12 11 11 12 12 11 12 12 13 14 14 14 14 14 14 14 14 15 15 16 16 16 16 16 16 16 16
14 14 14 13 12 12 11 12 12 12 11 11 11 11 11 11 11 12 12 11 12 12 12 12 13 15 15 15 15 14 15 15 15 15 16 16 16 16 16 16 16 16 17
15 14 13 12 12 12 12 11 12 12 11 11 11 11 12 12 11 12 12 12 12 13 13 14 14 15 15 15 15 14 15 15 15 15 15 16 15 16 16 16 16 16 17
13 13 13 12 12 11 11 10 11 12 12 12 12 12 13 13 12 12 12 12 13 14 13 15 15 15 15 15 15 15 15 15 16 16 16 16 16 16 16 16 16 16 16
12 12 12 12 12 11 11 11 10 11 11 12 12 12 13 12 11 12 12 13 13 12 13 14 15 15 15 15 15 14 14 14 15 15 15 15 16 16 16 16 16 16 16
12 12 11 11 11 11 11 11 11 11 11 12 12 12 12 11 11 12 12 13 13 12 12 13 14 14 14 15 14 14 13 13 13 14 14 14 14 15 15 16 16 15 15
11 11 10 11 10 10 10 11 11 10 11 12 12 13 12 11 11 11 12 13 13 13 13 14 14 13 12 13 13 13 13 13 13 13 14 14 14 14 14 15 15 15 15
11 10 11 11 11 11 10 10 10 10 11 11 12 13 12 11 11 11 12 13 13 14 14 13 13 12 12 12 12 12 13 14 13 13 13 13 13 13 14 15 15 15 15
11 11 10 11 11 11 11 11 11 11 11 11 11 11 12 12 12 12 12 12 13 13 12 12 12 12 12 12 12 12 13 13 12 12 13 13 14 14 14 14 15 15 15
11 11 12 11 11 11 11 11 11 11 12 11 12 12 12 12 12 12 12 11 11 12 12 13 12 13 13 12 12 12 12 12 12 12 13 13 14 14 14 14 14 14 14
11 11 11 11 11 11 12 12 12 12 12 11 12 12 11 11 12 12 12 11 11 12 12 13 13 13 13 12 12 12 11 12 12 12 13 13 14 14 14 14 13 13 14
12 12 11 11 11 12 12 12 12 12 12 12 12 11 12 12 13 12 11 12 12 12 12 13 13 12 12 12 12 12 12 12 12 12 13 13 13 14 14 13 13 13 14
12 12 11 11 12 12 12 12 12 12 12 11 11 11 12 12 12 11 11 11 11 11 12 12 12 12 12 12 11 12 12 13 13 12 13 13 13 14 13 12 13 13 14
12 12 12 12 12 12 12 13 13 12 11 11 11 11 11 11 12 11 11 11 11 11 11 11 11 12 12 12 12 12 13 14 13 13 13 13 13 12 13 13 14 14 15
13 13 14 13 13 12 13 13 13 12 11 11 11 11 11 11 11 11 11 11 11 11 11 11 11 11 11 12 12 13 13 13 14 13 13 12 12 13 13 13 13 14 14
14 14 14 14 13 13 13 13 13 12 12 12 11 12 11 11 11 11 12 12 12 12 11 11 11 11 12 12 13 13 13 13 13 12 12 13 13 14 14 14 14 14 14
15 15 14 15 14 14 13 13 13 13 13 12 12 12 12 12 12 12 11 11 11 11 11 12 12 12 12 12 12 13 12 12 11 12 12 13 13 14 14 14 14 14 15
16 16 15 15 15 15 14 14 13 13 13 13 13 13 13 12 12 12 12 12 12 12 12 12 13 12 12 13 13 12 11 11 11 11 12 12 12 13 14 14 14 14 14
18 18 17 16 16 16 16 15 15 14 14 15 14 14 13 13 13 13 13 13 13 13 13 13 12 13 13 13 13 12 12 11 11 12 12 12 12 12 13 14 14 14 14
18 19 19 18 17 17 17 16 16 16 16 15 15 15 14 14 14 13 13 13 13 14 14 13 13 13 13 13 13 12 12 12 12 12 12 13 13 13 14 14 14 14 14
18 19 19 18 18 18 17 17 17 17 16 16 16 15 15 15 15 14 14 14 14 15 14 14 14 14 14 13 13 13 12 12 12 12 12 13 14 15 15 15 15 14 14
19 20 19 19 19 18 17 17 17 18 18 18 17 16 16 16 16 15 15 15 15 15 15 14 14 14 14 14 13 13 13 13 13 13 13 14 14 14 15 15 15 14 14
21 20 20 20 20 19 19 18 18 19 19 19 19 19 18 17 16 16 16 16 16 16 16 15 15 15 14 14 13 13 13 14 14 14 15 15 15 15 15 16 15 14 15
22 22 20 20 20 20 20 19 19 19 20 20 20 19 19 18 18 18 17 17 17 16 16 16 17 16 16 15 14 14 15 15 15 15 16 16 16 16 17 16 16 15 15
Wind_Direction
282 278 280 283 287 283 279 277 272 268 263 263 263 260 257 258 256 252 253 257 262 264 264 262 262 266 268 269 268 265 264 265 264 264 266 266 265 265 266 266 267 266 265
278 277 278 281 283 280 275 270 268 264 260 261 260 258 258 260 255 253 255 255 264 266 262 264 263 263 265 269 268 265 265 264 266 267 269 269 266 266 267 267 267 265 265
278 278 279 278 280 280 277 270 264 263 263 264 261 260 261 260 258 256 255 258 268 271 272 269 265 266 269 270 270 265 265 266 267 269 271 271 268 267 267 265 264 264 264
276 277 278 278 280 281 278 269 263 264 264 262 260 260 261 261 261 259 259 260 269 274 275 272 269 269 270 271 271 267 266 267 269 270 271 269 268 266 265 265 265 265 266
274 274 276 277 277 277 276 273 267 263 259 260 261 261 261 261 261 259 259 262 266 272 273 273 274 271 270 272 272 270 268 268 268 268 269 269 266 265 266 266 267 266 266
274 270 271 272 270 270 270 274 270 264 259 261 264 263 263 263 258 258 259 260 264 268 272 274 274 274 273 274 273 270 269 268 269 269 269 268 265 265 265 265 266 265 265
277 272 269 267 265 265 269 270 272 267 264 265 266 265 265 263 259 259 260 260 263 268 272 275 276 278 276 276 275 274 273 272 273 271 269 268 266 265 265 266 267 267 265
277 275 268 264 264 265 266 267 269 269 267 266 265 267 268 262 259 262 264 265 267 271 271 275 277 277 277 278 274 274 274 274 272 268 269 268 267 267 268 269 269 268 266
277 275 264 261 262 265 265 265 267 271 269 265 266 266 267 263 260 264 266 266 267 270 272 277 279 278 279 281 279 275 271 271 270 268 268 266 266 266 266 268 271 272 270
276 271 262 260 262 263 263 265 269 270 268 268 270 267 264 262 266 270 267 267 269 272 276 279 279 279 280 282 278 275 270 267 269 269 265 265 264 265 266 268 271 271 269
272 267 262 263 262 263 265 267 269 270 270 272 273 271 267 268 270 271 270 271 273 275 274 277 276 276 276 276 275 273 271 268 267 266 266 267 266 267 269 271 271 269 267
268 266 265 262 259 263 266 268 269 272 271 273 276 277 270 269 271 275 274 276 276 274 273 274 273 271 273 274 272 272 269 267 264 265 268 269 267 268 269 270 270 268 267
265 264 264 260 258 261 265 270 272 274 272 274 277 277 272 272 277 278 270 272 277 275 275 274 272 272 273 272 268 267 267 267 266 267 268 269 269 269 269 269 269 268 267
264 264 262 259 258 260 262 269 273 277 277 276 275 274 274 274 278 276 274 273 276 276 275 274 274 275 272 267 266 265 268 270 271 273 273 271 271 270 269 268 269 269 270
264 263 258 256 258 260 263 268 272 277 276 274 274 277 278 274 275 275 274 276 277 278 277 276 276 276 273 269 270 268 270 272 275 277 277 276 273 274 272 272 271 272 273
264 262 257 255 258 263 266 269 271 276 274 272 275 278 278 275 275 276 273 274 277 279 277 278 277 274 273 272 273 275 275 274 276 276 277 277 274 276 275 277 276 276 275
264 262 259 256 258 263 267 270 270 272 272 271 270 275 277 275 275 277 274 274 275 277 278 278 277 275 275 276 276 278 278 276 275 276 277 276 273 274 275 278 279 279 279
264 267 266 265 264 265 266 266 270 268 268 269 272 274 275 275 277 277 275 274 275 275 277 278 278 280 280 282 282 279 277 278 278 277 276 275 273 273 274 279 280 282 283
261 263 264 267 267 265 261 262 267 269 268 270 273 275 276 275 275 274 273 274 274 275 276 276 278 280 283 285 285 281 278 278 278 278 278 279 278 274 275 280 281 283 286
260 261 261 263 265 265 265 267 266 269 267 267 270 273 274 274 274 273 273 272 273 278 279 278 277 277 280 284 285 284 280 278 277 277 279 279 279 279 279 282 283 283 285
258 261 261 261 262 264 265 268 267 268 267 265 267 271 272 271 271 271 271 271 272 276 277 277 279 278 279 280 282 282 279 279 277 277 277 278 280 284 284 284 284 285 284
259 260 260 260 261 263 264 266 267 266 267 265 264 265 267 269 268 268 270 270 271 274 276 275 278 281 279 279 279 278 276 278 278 276 278 280 281 282 286 289 287 285 284
259 259 259 261 261 261 263 265 265 264 265 265 267 264 265 267 267 269 270 270 271 274 276 276 278 279 279 277 275 275 274 277 279 279 279 281 284 284 286 289 289 287 284
257 257 258 261 263 264 266 266 264 262 263 264 265 265 265 267 266 267 269 271 273 273 275 275 276 277 276 275 273 273 272 275 278 280 281 282 284 285 286 287 287 289 290
256 257 258 260 261 262 265 265 262 262 262 264 265 267 268 267 264 264 266 268 271 272 273 275 276 276 273 271 270 271 273 275 278 281 283 285 285 287 286 286 286 288 290
258 258 258 259 260 260 262 262 263 263 264 266 267 267 267 267 266 265 265 267 270 273 274 275 275 273 271 268 269 272 276 278 278 280 282 285 287 286 287 287 285 287 289
Height
5839 5839 5838 5837 5837 5836 5836 5835 5835 5835 5834 5835 5835 5835 5835 5835 5835 5835 5835 5835 5836 5836 5836 5835 5835 5836 5836 5836 5836 5836 5835 5835 5835 5835 5836 5836 5836 5836 5836 5836 5836 5835 5836
5836 5835 5835 5834 5834 5833 5832 5832 5831 5831 5832 5832 5832 5832 5832 5832 5832 5832 5833 5833 5833 5833 5833 5833 5833 5833 5833 5833 5832 5832 5832 5831 5831 5832 5832 5832 5833 5832 5832 5832 5832 5832 5832
5832 5832 5831 5831 5830 5830 5829 5828 5828 5828 5828 5829 5829 5829 5830 5829 5830 5830 5830 5830 5830 5830 5830 5829 5829 5829 5829 5829 5829 5829 5828 5828 5827 5828 5828 5828 5828 5828 5828 5828 5828 5828 5828
5829 5828 5828 5827 5827 5826 5825 5825 5825 5825 5825 5826 5826 5827 5827 5827 5827 5827 5826 5827 5827 5826 5826 5826 5826 5826 5825 5825 5825 5824 5824 5824 5823 5823 5823 5823 5823 5823 5824 5824 5824 5824 5824
5825 5824 5824 5824 5823 5823 5822 5822 5822 5822 5822 5823 5823 5823 5824 5824 5824 5823 5823 5823 5823 5823 5823 5822 5822 5822 5821 5821 5820 5820 5820 5819 5819 5819 5818 5818 5818 5819 5819 5819 5819 5819 5819
5821 5821 5821 5820 5820 5820 5819 5819 5818 5818 5819 5819 5820 5820 5821 5821 5820 5820 5820 5820 5820 5819 5819 5818 5818 5817 5817 5816 5816 5815 5815 5814 5814 5814 5814 5814 5814 5814 5814 5814 5814 5814 5814
5817 5817 5817 5817 5817 5817 5816 5816 5816 5816 5816 5816 5816 5817 5817 5817 5817 5817 5817 5816 5816 5815 5814 5814 5814 5813 5813 5812 5811 5811 5810 5810 5809 5809 5809 5810 5810 5810 5810 5810 5810 5810 5810
5814 5814 5814 5814 5814 5814 5814 5814 5814 5813 5813 5813 5813 5813 5813 5813 5813 5813 5813 5813 5812 5812 5811 5810 5810 5809 5809 5808 5807 5807 5806 5806 5805 5805 5805 5805 5805 5805 5805 5805 5805 5805 5805
5811 5810 5810 5811 5811 5811 5811 5811 5811 5811 5811 5811 5810 5810 5810 5810 5810 5810 5809 5809 5808 5808 5807 5807 5806 5805 5805 5804 5803 5803 5802 5802 5802 5802 5802 5801 5801 5801 5801 5801 5801 5801 5801
5808 5808 5808 5808 5808 5808 5808 5808 5808 5808 5808 5807 5807 5807 5807 5806 5806 5806 5806 5805 5804 5804 5803 5803 5802 5801 5801 5800 5799 5799 5799 5798 5798 5798 5798 5797 5797 5797 5797 5797 5796 5796 5796
5805 5805 5805 5805 5805 5806 5806 5805 5805 5805 5805 5804 5804 5803 5803 5803 5803 5802 5802 5801 5800 5800 5799 5799 5798 5798 5797 5797 5796 5796 5795 5795 5794 5794 5794 5794 5793 5793 5793 5792 5792 5792 5792
5802 5802 5802 5802 5803 5803 5803 5802 5802 5802 5801 5801 5801 5800 5800 5799 5799 5798 5798 5798 5797 5796 5795 5795 5794 5794 5793 5793 5792 5792 5791 5791 5791 5790 5790 5789 5789 5789 5789 5788 5788 5788 5787
5799 5799 5799 5799 5799 5799 5800 5799 5799 5799 5798 5798 5797 5797 5796 5796 5795 5795 5794 5794 5793 5792 5791 5791 5790 5790 5789 5789 5789 5788 5788 5788 5787 5787 5786 5786 5785 5785 5784 5784 5784 5783 5783
5796 5796 5796 5796 5796 5796 5796 5796 5796 5795 5794 5794 5794 5793 5793 5793 5792 5791 5791 5790 5789 5788 5787 5787 5786 5786 5785 5785 5785 5785 5785 5784 5784 5783 5782 5782 5781 5781 5780 5780 5779 5779 5779
5793 5793 5793 5793 5793 5793 5793 5793 5792 5791 5791 5791 5790 5790 5790 5789 5789 5788 5787 5786 5786 5785 5784 5783 5782 5782 5782 5782 5782 5781 5781 5781 5780 5779 5779 5778 5778 5777 5776 5776 5775 5775 5774
5789 5789 5789 5789 5789 5789 5789 5789 5789 5788 5788 5787 5787 5787 5786 5786 5785 5785 5784 5783 5782 5781 5780 5780 5779 5779 5779 5779 5778 5778 5777 5777 5776 5775 5775 5774 5773 5773 5772 5772 5771 5771 5770
5784 5785 5785 5785 5785 5785 5785 5785 5785 5785 5784 5784 5784 5784 5783 5782 5782 5781 5781 5780 5779 5779 5778 5777 5776 5776 5776 5775 5775 5774 5774 5773 5772 5771 5771 5770 5769 5769 5768 5767 5767 5766 5765
5780 5781 5781 5781 5782 5782 5782 5782 5782 5781 5781 5781 5780 5780 5780 5779 5779 5778 5778 5777 5777 5776 5775 5774 5774 5773 5773 5772 5772 5771 5770 5769 5768 5767 5767 5766 5765 5765 5764 5763 5763 5762 5761
5776 5776 5777 5777 5777 5778 5778 5778 5778 5778 5778 5777 5777 5777 5776 5776 5775 5775 5774 5774 5773 5773 5772 5772 5771 5770 5770 5769 5768 5767 5766 5765 5765 5764 5763 5762 5762 5761 5760 5759 5759 5758 5757
5772 5772 5772 5773 5773 5773 5774 5774 5774 5774 5774 5774 5773 5773 5773 5772 5772 5771 5771 5771 5770 5770 5769 5768 5768 5767 5766 5765 5765 5764 5763 5762 5761 5760 5759 5759 5758 5757 5756 5755 5754 5753 5752
5767 5768 5768 5768 5769 5769 5770 5770 5770 5770 5770 5770 5769 5769 5769 5768 5768 5767 5767 5767 5767 5766 5766 5765 5764 5763 5762 5762 5761 5760 5759 5758 5757 5756 5756 5755 5754 5753 5752 5751 5750 5749 5748
5762 5762 5763 5764 5764 5765 5765 5765 5765 5765 5765 5765 5765 5765 5765 5764 5764 5764 5764 5763 5763 5763 5762 5761 5760 5760 5759 5758 5757 5757 5756 5755 5754 5753 5752 5751 5750 5750 5749 5748 5746 5745 5744
5756 5757 5758 5758 5759 5759 5760 5760 5760 5760 5760 5761 5761 5760 5760 5760 5760 5760 5760 5759 5759 5759 5758 5757 5756 5756 5755 5754 5753 5753 5752 5751 5750 5750 5749 5748 5747 5746 5745 5744 5742 5741 5739
5751 5752 5752 5753 5754 5754 5754 5755 5755 5755 5755 5756 5756 5756 5756 5756 5756 5755 5755 5755 5755 5754 5754 5753 5752 5751 5751 5750 5749 5749 5748 5748 5747 5746 5745 5744 5743 5742 5741 5739 5738 5736 5735
5745 5745 5746 5747 5748 5749 5749 5749 5750 5750 5750 5750 5750 5750 5750 5751 5751 5751 5751 5751 5750 5750 5749 5749 5748 5747 5746 5746 5745 5745 5744 5744 5743 5742 5741 5740 5739 5738 5736 5735 5733 5732 5730
5738 5739 5740 5741 5742 5743 5743 5744 5744 5745 5745 5745 5745 5745 5745 5745 5745 5745 5745 5745 5745 5745 5744 5744 5743 5742 5742 5741 5741 5741 5740 5740 5739 5738 5737 5735 5734 5733 5731 5730 5728 5727 5725